sat.trackr.live / text

‹ back to catalog

STARLINK-37566

NORAD 68908 · 2026-097P

PAYLOAD ACTIVE UNKNOWN

§ Identity

Operator
Country
US
Launch date
2026-04-30
Launch site
AFWTR
Launch vehicle
Mass (kg)
RCS (m²)

Purposes: comms

External: N2YO · Heavens-Above · Gunter

§ Orbital elements

Epoch: 2026-05-25T04:00:03.998880Z

Period
93.75 min
Inclination
97.2853°
Eccentricity
0.0002170
Mean motion
15.35999962 rev/d
Perigee alt
456.5 km
Apogee alt
459.4 km
Semi-major
6,836.1 km
B*
-1.1212e-1
RAAN
340.9634°
Arg perigee
101.3909°
Mean anomaly
301.6613°
Rev number
522

§ Raw data

STARLINK-375661 68908U 26097P   26145.16671295 -.03467034  00000+0 -11212+0 0  99942 68908  97.2853 340.9634 0002170 101.3909 301.6613 15.35999962  5226

JSON: /api/v1/satellites/68908 · /tle

For live sub-satellite position, see the globe view (requires WebGL).

§ Visibility from observer

Set your observer location to see the next 7 days of passes ≥ 10°. The values pass through the URL so the page stays shareable.

No JS? Fill the form by hand. The geolocation button needs JavaScript.